Regional Weather Roundup
Issued by NWS

Home | Current Version | Previous Version | Graphics & Text | Print | Product List | Glossary On
Versions: 1 2 3 4 5 6 7 8 9 10 11 12 13 14 15 16 17 18 19 20 21 22 23 24 25 26 27 28 29 30 31 32 33 34 35 36 37 38 39 40 41 42 43 44 45 46 47 48 49 50
000
ASUS43 KBIS 270020
RWRND

NORTH DAKOTA REGIONAL WEATHER ROUNDUP
NATIONAL WEATHER SERVICE BISMARCK ND
700 PM CDT SUN APR 26 2015

NOTE: "FAIR" INDICATES FEW OR NO CLOUDS BELOW 12,000 FEET WITH NO
SIGNIFICANT WEATHER AND/OR OBSTRUCTIONS TO VISIBILITY.


NDZ001>003-009>011-017-270100-
NORTHWEST NORTH DAKOTA

CITY           SKY/WX    TMP DP  RH WIND       PRES   REMARKS
WILLISTON      CLOUDY    54  34  46 N7        30.14R
6HR MIN TEMP:  47; 6HR MAX TEMP:  57;

MINOT          LGT RAIN  49  45  86 S6        30.13R
MINOT AFB      DRIZZLE   49  49 100 S8        30.12R
$$

NDZ018>021-031>035-040>046-270100-
SOUTHWEST NORTH DAKOTA

CITY           SKY/WX    TMP DP  RH WIND       PRES   REMARKS
BISMARCK       CLOUDY    56  48  74 N13       30.09F
6HR MIN TEMP:  52; 6HR MAX TEMP:  60;

DICKINSON      CLOUDY    44  41  89 NE8       30.11R
GARRISON         N/A     49  46  90 N6        30.13R
6HR MIN TEMP:  46; 6HR MAX TEMP:  49; 6HR PCP:  0.01;

HETTINGER ARPT CLOUDY    47  45  93 N7        30.10R FOG
$$

NDZ004>008-012>016-024-026-027-054-270100-
NORTHEAST NORTH DAKOTA

CITY           SKY/WX    TMP DP  RH WIND       PRES   REMARKS
GRAND FORKS    PTSUNNY   68  24  19 CALM      30.10R
GRND FRKS AFB  MOSUNNY   66  26  21 CALM      30.10S
DEVILS LAKE    PTSUNNY   57  45  62 NW12      30.11R
$$

NDZ022-023-025-028>030-036>039-047>053-270100-
SOUTHEAST NORTH DAKOTA

CITY           SKY/WX    TMP DP  RH WIND       PRES   REMARKS
FARGO          SUNNY     66  22  18 SE5       30.09S
6HR MIN TEMP:  63; 6HR MAX TEMP:  68;

JAMESTOWN      SUNNY     65  33  30 SE5       30.08R
$$



USA.gov is the U.S. government's official web portal to all federal, state and local government web resources and services.